Regional Weather Roundup
Issued by NWS

Home | Current Version | Previous Version | Graphics & Text | Print | Product List | Glossary On
Versions: 1 2 3 4 5 6 7 8 9 10 11 12 13 14 15 16 17 18 19 20 21 22 23 24 25 26 27 28 29 30 31 32 33 34 35 36 37 38 39 40 41 42 43 44
000
ASUS45 KBOU 200010
RWRCO

WEATHER ROUNDUP FOR COLORADO
NATIONAL WEATHER SERVICE DENVER/BOULDER CO
600 PM MDT THU APR 19 2018

NOTE: "FAIR" INDICATES FEW OR NO CLOUDS BELOW 12000 FEET WITH NO
SIGNIFICANT WEATHER AND/OR OBSTRUCTIONS TO VISIBILITY.

COZ001>005-013-030-031-200100-
...NORTHWEST COLORADO...

CITY           SKY/WX    TMP DP  RH WIND       PRES   REMARKS
CRAIG          FAIR      62  21  20 VRB6      29.82F
HAYDEN         FAIR      61  19  19 N5        29.85F
MEEKER         FAIR      64  10  12 SW6       29.81F
RANGELY        FAIR      64  11  12 NW5       29.74F
RABBIT EARS PA CLOUDY    41  14  33 S6        30.06F
STEAMBOAT SPGS FAIR      60  13  15 E8        29.86F
WALDEN         FAIR      54   9  16 SE20G25   29.98S
$$

COZ006>008-011-200100-
...WEST CENTRAL VALLEYS...

CITY           SKY/WX    TMP DP  RH WIND       PRES   REMARKS
GRAND JUNCTION FAIR      69  24  18 S30G37    29.73R
MONTROSE       FAIR      65  15  14 SW22G35   29.81R
EAGLE          FAIR      66   4   8 CALM      29.85F
RIFLE          FAIR      66  11  11 S9G17     29.77F
DELTA          FAIR      72  16  12 S28G39    29.78R
NUCLA          CLOUDY    63  19  19 SE36G49   29.80F HAZE
$$

COZ017>023-064>068-200100-
...SOUTHWEST COLORADO...

CITY           SKY/WX    TMP DP  RH WIND       PRES   REMARKS
DURANGO        FAIR      64  13  13 SE20G44   29.86F
CORTEZ         FAIR      68   7   9 SE23G36   29.76F
PAGOSA SPRINGS PTSUNNY   60   7  12 S10G21    29.99F
TELLURIDE      CLOUDY    49  20  32 SE22G33   30.02R
WOLF CREEK PAS CLOUDY    36  14  41 S20G36    30.21F
$$

COZ009-010-012-014-032>034-037-058>063-200100-
...CENTRAL COLORADO...

CITY           SKY/WX    TMP DP  RH WIND       PRES   REMARKS
ASPEN          FAIR      62   8  12 S13G18    29.88F
BUENA VISTA    CLOUDY    52  10  19 S14       30.04R
COPPER MTN     NOT AVBL
BERTHOUD PASS  FAIR      27  14  59 S13G25    30.19R WCI  16
COTTONWOOD PAS CLOUDY    50  10  20 SE17G29   30.11R
GUNNISON       FAIR      59  16  18 SW17G24   29.93R
GRANBY         FAIR      52  13  21 SE24G31   30.01S
KREMMLING      FAIR      64   0   7 SE9       29.92F
LEADVILLE      PTSUNNY   45  13  27 SE8G30    30.05S
MONARCH PASS   CLOUDY    32  12  43 E17       30.28S WCI  21
SALIDA         CLOUDY    55  12  18 SE18G30   30.07S
SUNLIGHT       CLOUDY    41  10  28 S12G24    30.07F
WILKERSON PASS FAIR      36   9  32 S12G20    30.21S
$$

COZ069>075-200100-
...SAN LUIS VALLEY/SANGRE DE CRISTO MOUNTAINS...

CITY           SKY/WX    TMP DP  RH WIND       PRES   REMARKS
ALAMOSA        FAIR      60  12  15 S30G40    30.00S
DEL NORTE      FAIR      60  16  18 SW8       30.01S
LA VETA PASS   FAIR      50  14  23 SE18G26   30.25F
SAGUACHE       NOT AVBL
$$

COZ035-036-038>040-200100-
...NORTHERN COLORADO FRONT RANGE...

CITY           SKY/WX    TMP DP  RH WIND       PRES   REMARKS
DENVER INTL AP PTSUNNY   65  16  15 SE32G44   29.98S
AURORA         PTSUNNY   63  14  15 SE24G39   29.98F
FRONT RANGE AP CLOUDY    66  14  13 SE35G44   29.99F
ERIE MUNI ARPT FAIR      59  18  20 N5        30.02F
BOULDER MUN AP FAIR      59  21  23 CALM      29.98F
CENTENNIAL     PTSUNNY   62  17  17 S28G41    29.99S
BROOMFIELD     CLOUDY    59  21  23 N9        29.99F
FORT COLLINS   FAIR      61  21  21 NW5       29.98F
LONGMONT       FAIR      62  19  19 CALM      29.99F
$$

COZ041-046-047-076>085-087-088-200100-
...PIKES PEAK/PALMER DIVIDE AND SOUTHERN FOOTHILLS...

CITY           SKY/WX    TMP DP  RH WIND       PRES   REMARKS
COLO. SPRINGS  PTSUNNY   61  15  16 SE30G38   30.04F
A. F. ACADEMY  FAIR      59  11  15 SE23G35   30.03F
SCHRIEVER AFB  NOT AVBL
CHEYENNE MTN   FAIR      56  12  17 SE18      30.00F
ELLICOTT         N/A    N/A N/A N/A S28G37    30.04F
FALCON         FAIR      58  10  14 SE28G38   30.07F
FORT CARSON    FAIR      64  13  14 SE24G30   30.00F
LIMON          FAIR      60  15  17 SE28G49   30.06F
MONUMENT HILL  FAIR      55  14  19 SE30G37   30.07S
CANON CITY     FAIR      68  19  15 E15G29    29.95F
WALSENBURG     NOT AVBL
TRINIDAD       FAIR      64  16  15 S30G52    30.05F
$$

COZ042>045-048>051-090-091-200100-
...NORTHEAST COLORADO...

CITY           SKY/WX    TMP DP  RH WIND       PRES   REMARKS
GREELEY ARPT   FAIR      67  17  14 SE25G31   29.96F
AKRON          FAIR      57  26  30 SE28G46   30.08F
BURLINGTON     FAIR      59  25  27 SE30G39   30.15F
WRAY           FAIR      61  25  25 SE25      30.15F
YUMA           FAIR      57  18  21 SE25G32   30.11F
STERLING       NOT AVBL
HOLYOKE        FAIR      61  28  29 SE24G32   30.16S
FORT MORGAN    FAIR      60  18  19 SE26G35   30.04F
$$

COZ086-089-092>099-200100-
...SOUTHEAST COLORADO...

CITY           SKY/WX    TMP DP  RH WIND       PRES   REMARKS
PUEBLO         FAIR      71  17  12 SE28G36   29.94F
LA JUNTA       FAIR      70  16  12 S25G37    30.02F
LAMAR          FAIR      67  20  16 SE20G40   30.08F
SPRINGFIELD      N/A     64  21  19 S31G46    30.13S
$$




USA.gov is the U.S. government's official web portal to all federal, state and local government web resources and services.